GLD1736 TNCM-MDPP

Flight info

Callsign GLD1736
Flight time 1h 17m
Altitude 32000
Route JUICE B520 STT DCT KATOK UM348 PIXAR DCT KOBET DCT
Aircraft B738/M-SDE2E3FGHIRWXY/LB1

Departure

Time 2026-05-03 22:53
Airport Princess Juliana International Airport (TNCM)

Arrival

Time 2026-05-04 00:10
Airport Gregorio Luperon International Airport (MDPP)
Time Latitude Longitude Altitude Speed Heading
2026-05-03 22:18 18.04330 -63.11365 8 ft 0 kts 351°
2026-05-03 22:44 18.04321 -63.11363 8 ft 2 kts 350°
2026-05-03 22:44 18.04304 -63.11360 8 ft 2 kts 348°
2026-05-03 22:45 18.04289 -63.11356 8 ft 2 kts 344°
2026-05-03 22:45 18.04273 -63.11351 8 ft 2 kts 335°
2026-05-03 22:45 18.04260 -63.11343 8 ft 2 kts 316°
2026-05-03 22:45 18.04251 -63.11332 8 ft 2 kts 278°
2026-05-03 22:46 18.04252 -63.11318 8 ft 2 kts 261°
2026-05-03 22:46 18.04253 -63.11312 8 ft 0 kts 261°
2026-05-03 22:49 18.04248 -63.11344 8 ft 12 kts 262°
2026-05-03 22:49 18.04236 -63.11436 8 ft 12 kts 261°
2026-05-03 22:49 18.04201 -63.11516 8 ft 12 kts 231°
2026-05-03 22:49 18.04149 -63.11583 8 ft 12 kts 230°
2026-05-03 22:50 18.04099 -63.11646 8 ft 11 kts 230°
2026-05-03 22:50 18.04062 -63.11714 8 ft 11 kts 255°
2026-05-03 22:50 18.04048 -63.11789 8 ft 10 kts 262°
2026-05-03 22:50 18.04039 -63.11861 8 ft 10 kts 262°
2026-05-03 22:51 18.04021 -63.11927 8 ft 9 kts 240°
2026-05-03 22:51 18.03983 -63.11981 8 ft 9 kts 219°
2026-05-03 22:51 18.03934 -63.11970 8 ft 9 kts 92°
2026-05-03 22:51 18.03935 -63.11956 8 ft 0 kts 81°
2026-05-03 22:52 18.03936 -63.11954 8 ft 2 kts 81°
2026-05-03 22:52 18.03957 -63.11820 8 ft 47 kts 82°
2026-05-03 22:52 18.04039 -63.11243 8 ft 111 kts 81°
2026-05-03 22:52 18.04193 -63.10248 85 ft 157 kts 80°
2026-05-03 22:53 18.04373 -63.09115 843 ft 155 kts 84°
2026-05-03 22:53 18.04172 -63.08017 1571 ft 164 kts 118°
2026-05-03 22:53 18.03222 -63.07215 1984 ft 193 kts 155°
2026-05-03 22:53 18.01826 -63.06823 2388 ft 221 kts 164°
2026-05-03 22:54 18.00265 -63.06476 2908 ft 237 kts 165°
2026-05-03 22:54 17.98608 -63.06203 3805 ft 241 kts 177°
2026-05-03 22:54 17.96953 -63.06621 4570 ft 255 kts 204°
2026-05-03 22:54 17.95546 -63.07823 5165 ft 276 kts 229°
2026-05-03 22:55 17.94684 -63.09657 5911 ft 288 kts 253°
2026-05-03 22:55 17.94578 -63.11768 6731 ft 294 kts 276°
2026-05-03 22:55 17.95130 -63.13850 7538 ft 299 kts 290°
2026-05-03 22:55 17.95847 -63.15910 8355 ft 302 kts 289°
2026-05-03 22:56 17.96559 -63.18012 9121 ft 307 kts 289°
2026-05-03 22:56 17.97277 -63.20130 9923 ft 308 kts 290°
2026-05-03 22:56 17.97998 -63.22254 10722 ft 311 kts 290°
2026-05-03 22:56 17.98735 -63.24427 11281 ft 322 kts 289°
2026-05-03 22:57 17.99509 -63.26708 11598 ft 341 kts 289°
2026-05-03 22:57 18.00328 -63.29113 11867 ft 359 kts 289°
2026-05-03 22:57 18.01183 -63.31627 12287 ft 370 kts 289°
2026-05-03 22:57 18.02055 -63.34194 12858 ft 376 kts 289°
2026-05-03 22:58 18.02951 -63.36785 13497 ft 379 kts 289°
2026-05-03 22:58 18.03838 -63.39367 14138 ft 381 kts 289°
2026-05-03 22:58 18.04738 -63.41998 14737 ft 384 kts 289°
2026-05-03 22:58 18.05640 -63.44653 14997 ft 386 kts 289°
2026-05-03 22:59 18.06541 -63.47305 15043 ft 385 kts 289°
2026-05-03 22:59 18.07440 -63.49960 15049 ft 385 kts 289°
2026-05-03 22:59 18.08340 -63.52615 15053 ft 385 kts 289°
2026-05-03 22:59 18.09235 -63.55264 15054 ft 385 kts 289°
2026-05-03 23:00 18.10134 -63.57918 15055 ft 385 kts 289°
2026-05-03 23:00 18.11029 -63.60564 15055 ft 385 kts 289°
2026-05-03 23:00 18.11624 -63.62322 15055 ft 386 kts 289°
2026-05-03 23:00 18.12524 -63.64986 15055 ft 386 kts 288°
2026-05-03 23:01 18.13277 -63.67730 15056 ft 385 kts 283°
2026-05-03 23:01 18.13964 -63.71380 15056 ft 385 kts 279°
2026-05-03 23:01 18.14256 -63.73224 15056 ft 385 kts 278°
2026-05-03 23:01 18.14698 -63.75997 15056 ft 385 kts 279°
2026-05-03 23:02 18.15159 -63.78782 15095 ft 388 kts 279°
2026-05-03 23:02 18.15634 -63.81590 15691 ft 389 kts 279°
2026-05-03 23:02 18.16105 -63.84390 16389 ft 389 kts 279°
2026-05-03 23:02 18.16577 -63.87203 16971 ft 391 kts 279°
2026-05-03 23:03 18.17048 -63.90022 17525 ft 393 kts 279°
2026-05-03 23:03 18.17522 -63.92859 18068 ft 395 kts 279°
2026-05-03 23:03 18.18000 -63.95723 18548 ft 399 kts 279°
2026-05-03 23:03 18.18483 -63.98621 18985 ft 403 kts 279°
2026-05-03 23:04 18.18971 -64.01544 19428 ft 407 kts 279°
2026-05-03 23:04 18.19462 -64.04487 19855 ft 411 kts 279°
2026-05-03 23:04 18.19957 -64.07459 20270 ft 415 kts 279°
2026-05-03 23:04 18.20457 -64.10457 20675 ft 418 kts 279°
2026-05-03 23:05 18.20962 -64.13488 21063 ft 422 kts 279°
2026-05-03 23:05 18.21461 -64.16492 21439 ft 425 kts 279°
2026-05-03 23:05 18.21973 -64.19572 21810 ft 428 kts 279°
2026-05-03 23:05 18.22486 -64.22671 22173 ft 431 kts 280°
2026-05-03 23:06 18.23002 -64.25789 22559 ft 434 kts 280°
2026-05-03 23:06 18.23520 -64.28924 22966 ft 435 kts 280°
2026-05-03 23:06 18.24044 -64.32070 23317 ft 437 kts 280°
2026-05-03 23:06 18.24574 -64.35182 23619 ft 441 kts 280°
2026-05-03 23:07 18.25116 -64.38417 23896 ft 445 kts 280°
2026-05-03 23:07 18.25649 -64.41635 24150 ft 449 kts 280°
2026-05-03 23:07 18.26184 -64.44880 24443 ft 451 kts 280°
2026-05-03 23:07 18.26715 -64.48115 24812 ft 452 kts 280°
2026-05-03 23:08 18.27254 -64.51401 25112 ft 454 kts 280°
2026-05-03 23:08 18.27791 -64.54680 25423 ft 456 kts 280°
2026-05-03 23:08 18.28330 -64.57968 25726 ft 458 kts 280°
2026-05-03 23:08 18.28871 -64.61273 26010 ft 459 kts 280°
2026-05-03 23:09 18.29416 -64.64597 26305 ft 461 kts 280°
2026-05-03 23:09 18.29960 -64.67925 26581 ft 463 kts 280°
2026-05-03 23:09 18.30517 -64.71272 26851 ft 464 kts 281°
2026-05-03 23:09 18.31072 -64.74632 27120 ft 466 kts 281°
2026-05-03 23:10 18.31621 -64.77991 27383 ft 468 kts 281°
2026-05-03 23:10 18.32170 -64.81362 27635 ft 469 kts 281°
2026-05-03 23:10 18.32721 -64.84763 27888 ft 471 kts 281°
2026-05-03 23:10 18.33271 -64.88161 28152 ft 472 kts 281°
2026-05-03 23:11 18.33821 -64.91563 28427 ft 472 kts 281°
2026-05-03 23:11 18.34370 -64.94962 28793 ft 471 kts 281°
2026-05-03 23:11 18.34920 -64.98357 29164 ft 469 kts 281°
2026-05-03 23:11 18.35467 -65.01745 29513 ft 468 kts 281°
2026-05-03 23:12 18.36021 -65.05114 29872 ft 467 kts 281°
2026-05-03 23:12 18.36586 -65.08477 30247 ft 466 kts 281°
2026-05-03 23:12 18.37145 -65.11827 30632 ft 464 kts 281°
2026-05-03 23:12 18.37702 -65.15169 31017 ft 462 kts 281°
2026-05-03 23:13 18.38256 -65.18499 31386 ft 461 kts 281°
2026-05-03 23:13 18.38807 -65.21820 31769 ft 459 kts 281°
2026-05-03 23:13 18.39355 -65.25134 32013 ft 460 kts 281°
2026-05-03 23:14 18.40446 -65.31733 32064 ft 459 kts 281°
2026-05-03 23:14 18.41539 -65.38355 32069 ft 458 kts 281°
2026-05-03 23:15 18.42652 -65.44951 32071 ft 458 kts 281°
2026-05-03 23:15 18.43754 -65.51565 32073 ft 458 kts 281°
2026-05-03 23:16 18.44848 -65.58171 32074 ft 458 kts 281°
2026-05-03 23:16 18.45937 -65.64780 32077 ft 458 kts 281°
2026-05-03 23:17 18.47023 -65.71387 32070 ft 458 kts 281°
2026-05-03 23:17 18.48107 -65.77997 32065 ft 458 kts 281°
2026-05-03 23:18 18.49188 -65.84606 32059 ft 458 kts 281°
2026-05-03 23:18 18.50267 -65.91222 32054 ft 458 kts 281°
2026-05-03 23:19 18.51337 -65.97794 32052 ft 458 kts 281°
2026-05-03 23:19 18.52411 -66.04410 32050 ft 458 kts 281°
2026-05-03 23:20 18.53481 -66.11012 32050 ft 458 kts 281°
2026-05-03 23:20 18.54552 -66.17637 32050 ft 458 kts 281°
2026-05-03 23:21 18.55621 -66.24260 32049 ft 458 kts 281°
2026-05-03 23:21 18.56686 -66.30876 32049 ft 458 kts 281°
2026-05-03 23:22 18.58277 -66.40794 32049 ft 458 kts 281°
2026-05-03 23:22 18.59337 -66.47416 32049 ft 458 kts 281°
2026-05-03 23:23 18.60394 -66.54039 32049 ft 458 kts 281°
2026-05-03 23:23 18.61449 -66.60661 32053 ft 458 kts 281°
2026-05-03 23:24 18.62501 -66.67277 32055 ft 458 kts 281°
2026-05-03 23:24 18.63550 -66.73893 32056 ft 458 kts 281°
2026-05-03 23:25 18.64597 -66.80512 32057 ft 458 kts 281°
2026-05-03 23:25 18.65641 -66.87130 32057 ft 458 kts 281°
2026-05-03 23:26 18.66686 -66.93766 32058 ft 458 kts 281°
2026-05-03 23:26 18.67726 -67.00388 32059 ft 458 kts 280°
2026-05-03 23:27 18.68765 -67.07022 32059 ft 458 kts 280°
2026-05-03 23:27 18.69801 -67.13645 32059 ft 458 kts 280°
2026-05-03 23:28 18.70835 -67.20273 32060 ft 458 kts 280°
2026-05-03 23:28 18.71866 -67.26903 32059 ft 458 kts 280°
2026-05-03 23:29 18.72894 -67.33525 32058 ft 458 kts 280°
2026-05-03 23:29 18.73921 -67.40157 32058 ft 458 kts 280°
2026-05-03 23:30 18.74945 -67.46790 32057 ft 458 kts 280°
2026-05-03 23:30 18.75959 -67.53367 32056 ft 458 kts 280°
2026-05-03 23:31 18.76979 -67.59999 32055 ft 458 kts 280°
2026-05-03 23:31 18.77997 -67.66631 32054 ft 458 kts 280°
2026-05-03 23:32 18.79029 -67.73280 32052 ft 458 kts 280°
2026-05-03 23:32 18.80040 -67.79918 32052 ft 458 kts 280°
2026-05-03 23:33 18.81045 -67.86561 32051 ft 458 kts 280°
2026-05-03 23:33 18.82048 -67.93196 32050 ft 458 kts 280°
2026-05-03 23:34 18.83226 -67.99800 32050 ft 457 kts 286°
2026-05-03 23:34 18.85297 -68.06123 32049 ft 456 kts 292°
2026-05-03 23:35 18.87651 -68.12353 32049 ft 456 kts 292°
2026-05-03 23:35 18.89964 -68.18550 32049 ft 456 kts 292°
2026-05-03 23:36 18.92281 -68.24791 32049 ft 456 kts 292°
2026-05-03 23:36 18.94589 -68.31023 32048 ft 456 kts 292°
2026-05-03 23:37 18.96917 -68.37274 32047 ft 457 kts 292°
2026-05-03 23:37 18.99226 -68.43487 32046 ft 456 kts 292°
2026-05-03 23:38 19.01534 -68.49722 32045 ft 456 kts 292°
2026-05-03 23:38 19.03869 -68.56007 32042 ft 457 kts 292°
2026-05-03 23:39 19.06179 -68.62266 32040 ft 457 kts 292°
2026-05-03 23:39 19.08480 -68.68526 32037 ft 457 kts 292°
2026-05-03 23:40 19.10777 -68.74785 32034 ft 457 kts 292°
2026-05-03 23:40 19.13029 -68.81068 32029 ft 457 kts 289°
2026-05-03 23:41 19.14459 -68.87609 32026 ft 458 kts 278°
2026-05-03 23:41 19.15070 -68.94326 32021 ft 458 kts 275°
2026-05-03 23:42 19.15585 -69.01003 32013 ft 458 kts 275°
2026-05-03 23:42 19.16120 -69.07717 32007 ft 458 kts 276°
2026-05-03 23:43 19.16661 -69.14430 32004 ft 458 kts 275°
2026-05-03 23:43 19.17207 -69.21152 31866 ft 459 kts 276°
2026-05-03 23:44 19.17491 -69.24495 31557 ft 451 kts 276°
2026-05-03 23:44 19.17764 -69.27771 31062 ft 446 kts 276°
2026-05-03 23:44 19.18033 -69.31035 30546 ft 443 kts 276°
2026-05-03 23:44 19.18212 -69.33229 30202 ft 442 kts 276°
2026-05-03 23:45 19.18470 -69.36409 29710 ft 439 kts 276°
2026-05-03 23:45 19.18731 -69.39620 29220 ft 436 kts 275°
2026-05-03 23:45 19.18987 -69.42798 28734 ft 434 kts 275°
2026-05-03 23:45 19.19242 -69.45976 28246 ft 431 kts 275°
2026-05-03 23:46 19.19495 -69.49124 27763 ft 428 kts 275°
2026-05-03 23:46 19.19745 -69.52250 27280 ft 425 kts 275°
2026-05-03 23:46 19.19993 -69.55360 26801 ft 423 kts 275°
2026-05-03 23:46 19.20239 -69.58446 26325 ft 420 kts 275°
2026-05-03 23:47 19.20494 -69.61520 25850 ft 417 kts 275°
2026-05-03 23:47 19.20741 -69.64566 25378 ft 415 kts 275°
2026-05-03 23:47 19.20982 -69.67601 24905 ft 412 kts 275°
2026-05-03 23:47 19.21218 -69.70608 24426 ft 410 kts 274°
2026-05-03 23:48 19.21453 -69.73615 23918 ft 408 kts 274°
2026-05-03 23:48 19.21685 -69.76600 23425 ft 406 kts 274°
2026-05-03 23:48 19.21913 -69.79530 22948 ft 404 kts 274°
2026-05-03 23:48 19.22143 -69.82495 22466 ft 402 kts 274°
2026-05-03 23:49 19.22369 -69.85421 22143 ft 395 kts 274°
2026-05-03 23:49 19.22590 -69.88270 22069 ft 382 kts 274°
2026-05-03 23:49 19.22920 -69.91016 21972 ft 371 kts 283°
2026-05-03 23:49 19.23892 -69.93495 21880 ft 361 kts 300°
2026-05-03 23:50 19.25407 -69.95594 21476 ft 361 kts 311°
2026-05-03 23:50 19.27153 -69.97485 21074 ft 360 kts 315°
2026-05-03 23:50 19.28991 -69.99285 20687 ft 359 kts 317°
2026-05-03 23:50 19.30845 -70.01039 20306 ft 357 kts 317°
2026-05-03 23:51 19.32695 -70.02799 19926 ft 355 kts 317°
2026-05-03 23:51 19.34528 -70.04549 19547 ft 354 kts 317°
2026-05-03 23:51 19.36347 -70.06290 19172 ft 352 kts 317°
2026-05-03 23:51 19.38161 -70.08029 18798 ft 350 kts 317°
2026-05-03 23:52 19.39942 -70.09739 18430 ft 349 kts 317°
2026-05-03 23:52 19.41756 -70.11483 18055 ft 347 kts 317°
2026-05-03 23:52 19.43507 -70.13166 17693 ft 343 kts 316°
2026-05-03 23:52 19.45266 -70.14858 17341 ft 331 kts 316°
2026-05-03 23:53 19.46949 -70.16476 16999 ft 330 kts 317°
2026-05-03 23:53 19.48652 -70.18097 16650 ft 329 kts 317°
2026-05-03 23:53 19.50351 -70.19721 16301 ft 328 kts 317°
2026-05-03 23:53 19.52033 -70.21336 15952 ft 327 kts 316°
2026-05-03 23:54 19.53715 -70.22953 15602 ft 325 kts 316°
2026-05-03 23:54 19.55389 -70.24566 15252 ft 324 kts 316°
2026-05-03 23:54 19.57054 -70.26171 14906 ft 323 kts 316°
2026-05-03 23:54 19.58705 -70.27764 14561 ft 322 kts 316°
2026-05-03 23:55 19.60361 -70.29363 14215 ft 321 kts 316°
2026-05-03 23:55 19.62008 -70.30953 13870 ft 319 kts 316°
2026-05-03 23:55 19.63652 -70.32540 13526 ft 318 kts 316°
2026-05-03 23:55 19.65278 -70.34111 13186 ft 317 kts 316°
2026-05-03 23:56 19.66913 -70.35690 12845 ft 316 kts 316°
2026-05-03 23:56 19.68531 -70.37252 12508 ft 314 kts 316°
2026-05-03 23:56 19.70147 -70.38813 12171 ft 313 kts 316°
2026-05-03 23:56 19.71698 -70.40314 11909 ft 301 kts 316°
2026-05-03 23:57 19.73217 -70.41775 11566 ft 290 kts 316°
2026-05-03 23:57 19.74702 -70.43208 11261 ft 278 kts 316°
2026-05-03 23:57 19.76114 -70.44573 10979 ft 278 kts 316°
2026-05-03 23:57 19.77558 -70.45970 10688 ft 278 kts 316°
2026-05-03 23:58 19.78969 -70.47334 10406 ft 277 kts 316°
2026-05-03 23:58 19.80393 -70.48712 10122 ft 276 kts 317°
2026-05-03 23:58 19.81807 -70.50079 9841 ft 276 kts 317°
2026-05-03 23:58 19.83135 -70.51545 9546 ft 274 kts 303°
2026-05-03 23:59 19.83835 -70.53397 9256 ft 270 kts 278°
2026-05-03 23:59 19.83760 -70.55355 8975 ft 266 kts 256°
2026-05-03 23:59 19.83188 -70.57205 8706 ft 262 kts 245°
2026-05-03 23:59 19.82401 -70.58947 8438 ft 260 kts 245°
2026-05-04 00:00 19.81746 -70.60739 8169 ft 259 kts 249°
2026-05-04 00:00 19.81187 -70.62553 7903 ft 258 kts 251°
2026-05-04 00:00 19.80664 -70.64364 7641 ft 255 kts 251°
2026-05-04 00:00 19.80156 -70.66127 7377 ft 246 kts 251°
2026-05-04 00:01 19.79659 -70.67855 7131 ft 241 kts 250°
2026-05-04 00:01 19.79175 -70.69530 6900 ft 235 kts 251°
2026-05-04 00:01 19.78701 -70.71165 6672 ft 225 kts 250°
2026-05-04 00:01 19.78246 -70.72733 6435 ft 220 kts 250°
2026-05-04 00:02 19.77799 -70.74275 6207 ft 218 kts 250°
2026-05-04 00:02 19.77354 -70.75806 5996 ft 217 kts 250°
2026-05-04 00:02 19.76909 -70.77338 5787 ft 217 kts 250°
2026-05-04 00:02 19.76474 -70.78831 5592 ft 206 kts 250°
2026-05-04 00:03 19.76060 -70.80256 5370 ft 199 kts 250°
2026-05-04 00:03 19.75507 -70.81565 5130 ft 190 kts 225°
2026-05-04 00:03 19.74408 -70.82198 4986 ft 180 kts 191°
2026-05-04 00:03 19.73160 -70.82194 4718 ft 181 kts 171°
2026-05-04 00:04 19.71937 -70.81892 4523 ft 180 kts 163°
2026-05-04 00:04 19.70750 -70.81487 4327 ft 178 kts 160°
2026-05-04 00:04 19.69622 -70.80969 4121 ft 178 kts 143°
2026-05-04 00:04 19.69046 -70.79857 3950 ft 176 kts 96°
2026-05-04 00:05 19.69286 -70.78595 3770 ft 175 kts 76°
2026-05-04 00:05 19.69678 -70.77376 3565 ft 174 kts 74°
2026-05-04 00:05 19.70099 -70.76182 3372 ft 172 kts 73°
2026-05-04 00:05 19.70508 -70.75031 3226 ft 165 kts 73°
2026-05-04 00:06 19.70903 -70.73877 3077 ft 163 kts 74°
2026-05-04 00:06 19.71243 -70.72758 2868 ft 160 kts 76°
2026-05-04 00:06 19.71574 -70.71622 2655 ft 158 kts 76°
2026-05-04 00:06 19.71889 -70.70532 2448 ft 156 kts 76°
2026-05-04 00:07 19.72204 -70.69437 2237 ft 155 kts 76°
2026-05-04 00:07 19.72524 -70.68329 2031 ft 152 kts 75°
2026-05-04 00:07 19.72829 -70.67271 1839 ft 152 kts 75°
2026-05-04 00:07 19.73138 -70.66199 1630 ft 152 kts 74°
2026-05-04 00:08 19.73445 -70.65134 1426 ft 151 kts 74°
2026-05-04 00:08 19.73756 -70.64063 1188 ft 152 kts 73°
2026-05-04 00:08 19.74085 -70.62982 922 ft 150 kts 75°
2026-05-04 00:08 19.74381 -70.61957 693 ft 144 kts 75°
2026-05-04 00:09 19.74655 -70.60954 511 ft 137 kts 76°
2026-05-04 00:09 19.74923 -70.59996 314 ft 132 kts 76°
2026-05-04 00:09 19.75187 -70.59087 140 ft 129 kts 75°
2026-05-04 00:09 19.75444 -70.58182 26 ft 120 kts 75°
2026-05-04 00:10 19.75624 -70.57556 23 ft 57 kts 72°
2026-05-04 00:10 19.75682 -70.57353 23 ft 0 kts 71°
2026-05-04 00:10 19.75693 -70.57318 23 ft 15 kts 71°
2026-05-04 00:10 19.75672 -70.57202 23 ft 12 kts 133°
2026-05-04 00:11 19.75664 -70.57192 23 ft 0 kts 133°
2026-05-04 00:11 19.75663 -70.57192 23 ft 0 kts 133°
2026-05-04 00:11 19.75619 -70.57140 23 ft 14 kts 131°
2026-05-04 00:11 19.75562 -70.57070 23 ft 12 kts 126°
2026-05-04 00:12 19.75552 -70.56984 23 ft 12 kts 83°
2026-05-04 00:12 19.75572 -70.56900 23 ft 11 kts 72°
2026-05-04 00:12 19.75596 -70.56822 23 ft 11 kts 72°
2026-05-04 00:12 19.75619 -70.56747 23 ft 10 kts 72°
2026-05-04 00:13 19.75622 -70.56673 23 ft 10 kts 97°
2026-05-04 00:13 19.75606 -70.56602 23 ft 10 kts 103°
2026-05-04 00:13 19.75592 -70.56554 23 ft 5 kts 112°
2026-05-04 00:13 19.75589 -70.56548 23 ft 0 kts 120°